Regional Weather Roundup
Issued by NWS

Home | Current Version | Previous Version | Graphics & Text | Print | Product List | Glossary On
Versions: 1 2 3 4 5 6 7 8 9 10 11 12 13 14 15 16 17 18 19 20 21 22 23 24 25 26 27 28 29 30 31 32 33 34 35 36 37 38 39 40 41 42 43 44 45 46 47 48 49 50
000
ASUS43 KLOT 271208
RWRIL

ILLINOIS REGIONAL WEATHER ROUNDUP
NATIONAL WEATHER SERVICE CHICAGO/ROMEOVILLE IL
600 AM CST MON FEB 27 2017

NOTE: "FAIR" INDICATES FEW OR NO CLOUDS BELOW 12,000 FEET WITH NO
SIGNIFICANT WEATHER AND/OR OBSTRUCTIONS TO VISIBILITY.

* THESE STATIONS ARE NOT UNDER NWS QUALITY CONTROL. THEY ALSO MAY NOT
  REPORT WEATHER SUCH AS PRECIPITATION OR FOG.

ILZ001-002-007-009-015-016-024-271300-
NORTHWEST ILLINOIS

CITY           SKY/WX    TMP DP  RH WIND       PRES   REMARKS
MOLINE         CLEAR     30  26  85 CALM      30.09R
6HR MIN TEMP:  25; 6HR MAX TEMP:  34;

STERLING*      CLOUDY    30  29  96 SE3       30.10S
$$

ILZ003-004-008-010-011-017-018-271300-
NORTH CENTRAL ILLINOIS

CITY           SKY/WX    TMP DP  RH WIND       PRES   REMARKS
ROCKFORD       CLEAR     25  22  88 CALM      30.12R
6HR MIN TEMP:  25; 6HR MAX TEMP:  32;

FREEPORT*      CLEAR     24  22  92 SE3       30.11S
ROCHELLE*      CLEAR     28  26  92 S5        30.11S WCI  23
DE KALB*       CLEAR     26  24  90 S6        30.11S WCI  20
PERU*          CLOUDY    29  26  87 S6        30.12R WCI  23
$$

ILZ005-006-012>014-019>023-271300-
NORTHEAST ILLINOIS

CITY           SKY/WX    TMP DP  RH WIND       PRES   REMARKS
CHICAGO-OHARE  PTCLDY    29  23  78 S5        30.12R WCI  24
6HR MIN TEMP:  27; 6HR MAX TEMP:  38;

CHICAGO-MIDWAY CLOUDY    35  26  69 S5        30.13R WCI  31
6HR MIN TEMP:  33; 6HR MAX TEMP:  38;

AURORA         CLOUDY    28  24  85 CALM      30.12R
6HR MIN TEMP:  28; 6HR MAX TEMP:  35;

LANSING*       CLOUDY    29  27  92 CALM      30.15R
JOLIET*        MOCLDY    34  30  86 CALM      30.14R
WAUKEGAN       CLEAR     25  22  88 CALM      30.12R FOG
6HR MIN TEMP:  23; 6HR MAX TEMP:  37;

DUPAGE AIRPORT MOCLDY    26  22  84 S6        30.11R WCI  19
6HR MIN TEMP:  26; 6HR MAX TEMP:  33;

KANKAKEE*      CLEAR     26  24  89 CALM      30.15R
WHEELING       CLEAR     26  22  84 CALM      30.13S
6HR MIN TEMP:  24; 6HR MAX TEMP:  37;

MORRIS*        PTCLDY    29  26  88 CALM      30.13R
ROMEOVILLE*    CLOUDY    32  30  94 S3        30.13R
NORTHERLY ISL    N/A     35  27  73 S1          N/A
$$

LMZ740>746-271300-
SOUTHERN LAKE MICHIGAN

STATION/POSITION SKY/WX   TEMP    WIND        PRES    VSBY  WAVE
                          AIR SEA DIR/SP/G                  HT/PER
                          (F)     (DEG/KT/KT) (MB)    (MI)  (FT/S)
HARRISON CRIB              38     250/  5/  7   N/A
BURNHAM HARBOR             35     180/  4/  9   N/A
CALUMET HARBOR             35     230/  4/  5 1019.8R
BURNS HARBOR               33     180/  8/  9 1021.0R
MICHIGAN CITY              36     170/  7/  9   N/A
$$

ILZ025>027-034>036-040-047-049-050-058-095>099-271300-
WEST-CENTRAL ILLINOIS

CITY           SKY/WX    TMP DP  RH WIND       PRES   REMARKS
QUINCY         CLEAR     33  31  92 SE8       30.08S WCI  26
GALESBURG*     PTCLDY    29  29 100 SE6         N/A  WCI  23
MACOMB*        CLEAR     25  25  99 CALM      30.12S
JACKSONVILLE*  CLOUDY    33  31  94 SE7       30.12R WCI  26
PITTSFIELD*    MOCLDY    32  32  99 E3        30.11R FOG
$$

ILZ028>032-037-038-041>044-048-051>054-059>061-271300-
CENTRAL ILLINOIS

CITY           SKY/WX    TMP DP  RH WIND       PRES   REMARKS
PONTIAC        CLEAR     27  27  99 S6        30.15R WCI  21
BLOOMINGTON    CLEAR     26  25  96 S6        30.13S WCI  19
DECATUR        CLOUDY    38  34  85 SE6       30.15R WCI  33
PEORIA         CLEAR     29  27  92 CALM      30.12R
6HR MIN TEMP:  28; 6HR MAX TEMP:  32;

LACON*         CLEAR     29  27  92 SE5       30.11S WCI  24
LINCOLN*       PTCLDY    32  30  95 CALM      30.14S
SPRINGFIELD    CLOUDY    36  32  85 E6        30.14R WCI  31
6HR MIN TEMP:  32; 6HR MAX TEMP:  38;

TAYLORVILLE    CLOUDY    38  34  84 E5        30.14R WCI  35
6HR MIN TEMP:  34; 6HR MAX TEMP:  38;

$$

ILZ033-039-045-046-055>057-062-063-271300-
EAST-CENTRAL ILLINOIS

CITY           SKY/WX    TMP DP  RH WIND       PRES   REMARKS
CHAMPAIGN      CLOUDY    38  32  79 SE6       30.16R WCI  33
RANTOUL*       CLOUDY    33  29  83 SE5       30.16R WCI  29
MATTOON        CLOUDY    40  34  79 E5        30.15R
PARIS*         CLOUDY    39  35  83 SE5       30.18R
$$

ILZ079-100>102-271300-
SOUTHWEST ILLINOIS

CITY           SKY/WX    TMP DP  RH WIND       PRES   REMARKS
ALTON          CLOUDY    38  34  86 E3        30.12R
BELLEVILLE     CLOUDY    40  34  79 CALM      30.10S
CAHOKIA*       MOCLDY    39  32  76 CALM      30.11R
SPARTA*        PTCLDY    38  33  82 SE6       30.12S WCI  34
$$

ILZ064>066-069>071-074>076-080>082-084>086-088>090-092>094-271300-
SOUTH-CENTRAL ILLINOIS

CITY           SKY/WX    TMP DP  RH WIND       PRES   REMARKS
CARBONDALE     CLOUDY    42  39  89 E5        30.13R
6HR MIN TEMP:  41; 6HR MAX TEMP:  45; 6HR PCP:  0.01;

CAIRO*         CLOUDY    45  42  89 E3        30.13R
EFFINGHAM*     CLOUDY    41  36  82 E5        30.17R
MARION         CLOUDY    45  41  87 E6        30.13S
MT. VERNON     CLOUDY    44  36  73 SE5       30.14R
CENTRALIA*     CLOUDY    43  37  77 SE3       30.12S
SALEM*         CLOUDY    44  33  66 SE3       30.13S
METROPOLIS*    CLOUDY    45  42  89 CALM      30.14S
$$

ILZ067-068-072-073-078-083-087-091-271300-
SOUTHEAST ILLINOIS

CITY           SKY/WX    TMP DP  RH WIND       PRES   REMARKS
LAWRENCEVILLE  CLOUDY    44  34  67 S10       30.18R
FLORA*         CLOUDY    44  35  72 SE5       30.15S
FAIRFIELD*     CLOUDY    43  36  75 CALM      30.14S
HARRISBURG*    CLOUDY    42  39  87 SE7       30.15S
ROBINSON*      CLOUDY    42  33  71 SE6       30.18R
CARMI*         CLOUDY    42  38  86 E7        30.16R
$$

ABBREVIATIONS USED IN REMARKS
   TC - TEMPERATURE IN CELSIUS
  WCI - WIND CHILL INDEX
   HX - HEAT INDEX
  VSB - VISIBILITY
$$




USA.gov is the U.S. government's official web portal to all federal, state and local government web resources and services.